Date String (YYYY-MM-DD hh:mm:ss) UTC,Instrument flags,absolute air pressure of the measurement (hPa),sample flow rate (lpm),inlet stack bypass flow (lpm),air temperature of the measurement (°C),ambient temperature measured by the external sensor (°C),aerosol sample conditioner tube jacket temperature (°C),OPC LED temperature (°C),internal box temperature (°C),relative humidity of the measurement (%),span deviation,mass concentration of particles derived from Lorenz-Mie calculation of OPC scattering (μg/m³),mass concentration of particles derived from Lorenz-Mie calculation of OPC scattering (μg/m³),mass concentration of particles derived from Lorenz-Mie calculation of OPC scattering (μg/m³)
DateTimeUTC,F1_M11,P_M11,Q1_M11,Q2_M11,T1_M11,T2_M11,T3_M11,T4_M11,T5_M11,U1_M11,ZSPAN_M11,X0_M11,X2_M11,X1_M11
2024-03-06 23:00:00,SystemResetWarning,0819.8,4.99,000.00,022.6,021.8,000.0,031.0,024.3,08.7,0000.0,0005.85,0001.59,0000.84
2024-03-06 23:01:00,SystemResetWarning,0819.8,5.01,000.00,022.6,021.8,000.0,031.0,024.3,08.7,0000.0,0004.42,0001.57,0000.83
2024-03-06 23:02:00,SystemResetWarning,0819.9,5.01,000.00,022.5,021.7,000.0,031.0,024.3,08.9,0000.0,0004.31,0001.53,0000.83
2024-03-06 23:03:00,SystemResetWarning,0819.8,5.00,000.00,022.5,021.7,000.0,031.0,024.3,09.1,0000.0,0004.25,0001.51,0000.83
2024-03-06 23:04:00,SystemResetWarning,0819.9,5.00,000.00,022.5,021.7,000.0,031.0,024.3,09.1,0000.0,0004.09,0001.47,0000.81
2024-03-06 23:05:00,SystemResetWarning,0819.9,5.00,000.00,022.5,021.7,000.0,031.0,024.3,08.8,0000.0,0004.16,0001.48,0000.80
2024-03-06 23:06:00,SystemResetWarning,0819.8,5.00,000.00,022.5,021.7,000.0,031.0,024.3,08.3,0000.0,0004.73,0001.50,0000.82
2024-03-06 23:07:00,SystemResetWarning,0819.8,5.00,000.00,022.5,021.7,000.0,031.0,024.3,08.4,0000.0,0005.28,0001.52,0000.83
2024-03-06 23:08:00,SystemResetWarning,0819.7,5.00,000.00,022.5,021.7,000.0,031.0,024.3,08.5,0000.0,0005.35,0001.49,0000.83
2024-03-06 23:09:00,SystemResetWarning,0819.8,5.00,000.00,022.5,021.7,000.0,031.0,024.3,08.6,0000.0,0005.32,0001.48,0000.83
2024-03-06 23:10:00,SystemResetWarning,0819.8,5.00,000.00,022.5,021.7,000.0,031.0,024.3,08.7,0000.0,0005.27,0001.47,0000.83
2024-03-06 23:11:00,SystemResetWarning,0819.7,5.00,000.00,022.5,021.7,000.0,031.0,024.3,08.7,0000.0,0004.56,0001.44,0000.83
2024-03-06 23:12:00,SystemResetWarning,0819.8,4.99,000.00,022.5,021.7,000.0,031.0,024.3,08.4,0000.0,0004.79,0001.43,0000.85
2024-03-06 23:13:00,SystemResetWarning,0819.8,5.01,000.00,022.5,021.7,000.0,031.0,024.3,08.5,0000.0,0005.39,0001.45,0000.84
2024-03-06 23:14:00,SystemResetWarning,0819.8,5.01,000.00,022.5,021.7,000.0,031.0,024.2,08.5,0000.0,0005.50,0001.47,0000.85
2024-03-06 23:15:00,SystemResetWarning,0819.7,5.00,000.00,022.5,021.6,000.0,031.0,024.3,08.6,0000.0,0007.11,0001.53,0000.86
2024-03-06 23:16:00,SystemResetWarning,0819.8,4.99,000.00,022.5,021.6,000.0,030.9,024.2,08.6,0000.0,0007.43,0001.59,0000.87
2024-03-06 23:17:00,SystemResetWarning,0820.0,4.99,000.00,022.4,021.6,000.0,030.9,024.2,08.8,0000.0,0007.12,0001.59,0000.88
2024-03-06 23:18:00,SystemResetWarning,0819.8,5.01,000.00,022.4,021.6,000.0,030.9,024.2,08.7,0000.0,0006.27,0001.59,0000.87
2024-03-06 23:19:00,SystemResetWarning,0819.7,5.01,000.00,022.4,021.6,000.0,030.9,024.2,08.7,0000.0,0006.43,0001.58,0000.87
2024-03-06 23:20:00,SystemResetWarning,0819.9,5.01,000.00,022.4,021.6,000.0,030.9,024.2,08.7,0000.0,0006.31,0001.55,0000.86
2024-03-06 23:21:00,SystemResetWarning,0820.0,4.99,000.00,022.4,021.5,000.0,030.9,024.2,08.8,0000.0,0006.59,0001.57,0000.86
2024-03-06 23:22:00,SystemResetWarning,0820.0,4.99,000.00,022.4,021.5,000.0,030.9,024.2,08.8,0000.0,0007.67,0001.63,0000.85
2024-03-06 23:23:00,SystemResetWarning,0819.8,5.00,000.00,022.4,021.5,000.0,030.9,024.1,08.7,0000.0,0007.73,0001.70,0000.85
2024-03-06 23:24:00,SystemResetWarning,0819.8,5.01,000.00,022.4,021.5,000.0,030.9,024.1,08.7,0000.0,0007.16,0001.76,0000.85
2024-03-06 23:25:00,SystemResetWarning,0819.8,5.00,000.00,022.4,021.5,000.0,030.9,024.1,08.7,0000.0,0007.57,0001.81,0000.85
2024-03-06 23:26:00,SystemResetWarning,0819.9,5.01,000.00,022.4,021.5,000.0,030.9,024.1,08.7,0000.0,0006.71,0001.78,0000.84
2024-03-06 23:27:00,SystemResetWarning,0819.8,5.00,000.00,022.4,021.5,000.0,030.9,024.2,08.6,0000.0,0005.84,0001.74,0000.84
2024-03-06 23:28:00,SystemResetWarning,0819.8,5.01,000.00,022.4,021.6,000.0,030.9,024.2,08.5,0000.0,0005.81,0001.73,0000.84
2024-03-06 23:29:00,SystemResetWarning,0819.9,5.01,000.00,022.4,021.6,000.0,030.9,024.2,08.5,0000.0,0005.98,0001.74,0000.83
2024-03-06 23:30:00,SystemResetWarning,0819.8,5.00,000.00,022.4,021.6,000.0,030.9,024.2,08.7,0000.0,0005.88,0001.73,0000.84
2024-03-06 23:31:00,SystemResetWarning,0819.8,4.99,000.00,022.4,021.6,000.0,030.9,024.2,08.7,0000.0,0005.94,0001.74,0000.85
2024-03-06 23:32:00,SystemResetWarning,0819.7,4.99,000.00,022.4,021.6,000.0,030.9,024.2,08.9,0000.0,0006.14,0001.77,0000.86
2024-03-06 23:33:00,SystemResetWarning,0819.7,5.00,000.00,022.4,021.6,000.0,030.9,024.2,08.9,0000.0,0004.55,0001.72,0000.87
2024-03-06 23:34:00,SystemResetWarning,0819.7,5.00,000.00,022.4,021.6,000.0,030.9,024.2,08.5,0000.0,0004.49,0001.67,0000.87
2024-03-06 23:35:00,SystemResetWarning,0820.0,5.00,000.00,022.4,021.6,000.0,030.9,024.2,08.7,0000.0,0004.28,0001.62,0000.89
2024-03-06 23:36:00,SystemResetWarning,0820.0,5.00,000.00,022.4,021.6,000.0,030.9,024.2,08.7,0000.0,0003.80,0001.63,0000.91
2024-03-06 23:37:00,SystemResetWarning,0819.7,5.01,000.00,022.4,021.6,000.0,030.9,024.2,08.8,0000.0,0003.75,0001.61,0000.91
2024-03-06 23:38:00,SystemResetWarning,0819.8,4.99,000.00,022.4,021.7,000.0,030.9,024.2,08.9,0000.0,0003.72,0001.61,0000.92
2024-03-06 23:39:00,SystemResetWarning,0819.8,4.99,000.00,022.4,021.7,000.0,030.9,024.2,08.7,0000.0,0003.75,0001.63,0000.92
2024-03-06 23:40:00,SystemResetWarning,0819.7,5.00,000.00,022.4,021.7,000.0,030.9,024.2,08.7,0000.0,0003.75,0001.67,0000.93
2024-03-06 23:41:00,SystemResetWarning,0819.8,4.99,000.00,022.4,021.7,000.0,030.9,024.2,08.6,0000.0,0003.71,0001.74,0000.93
2024-03-06 23:42:00,SystemResetWarning,0819.8,5.01,000.00,022.4,021.7,000.0,030.9,024.2,08.7,0000.0,0003.69,0001.73,0000.92
2024-03-06 23:43:00,SystemResetWarning,0819.8,5.01,000.00,022.4,021.7,000.0,030.9,024.2,08.7,0000.0,0003.73,0001.73,0000.91
2024-03-06 23:44:00,SystemResetWarning,0819.8,5.01,000.00,022.4,021.7,000.0,030.9,024.2,08.9,0000.0,0003.90,0001.76,0000.92
2024-03-06 23:45:00,SystemResetWarning,0819.8,5.00,000.00,022.4,021.7,000.0,030.9,024.3,08.6,0000.0,0004.11,0001.77,0000.93
2024-03-06 23:46:00,SystemResetWarning,0820.1,4.98,000.00,022.4,021.7,000.0,030.9,024.3,08.6,0000.0,0004.08,0001.75,0000.93
2024-03-06 23:47:00,SystemResetWarning,0820.0,5.01,000.00,022.4,021.7,000.0,030.9,024.2,08.7,0000.0,0003.96,0001.75,0000.92
2024-03-06 23:48:00,SystemResetWarning,0820.0,5.01,000.00,022.4,021.7,000.0,030.9,024.3,08.9,0000.0,0005.13,0001.73,0000.92
2024-03-06 23:49:00,SystemResetWarning,0819.8,5.00,000.00,022.5,021.8,000.0,030.9,024.3,09.0,0000.0,0006.28,0001.79,0000.93
2024-03-06 23:50:00,SystemResetWarning,0819.9,5.00,000.00,022.5,021.8,000.0,030.9,024.3,09.0,0000.0,0006.64,0001.84,0000.94
2024-03-06 23:51:00,SystemResetWarning,0819.8,5.00,000.00,022.5,021.8,000.0,030.9,024.3,09.0,0000.0,0006.51,0001.79,0000.93
2024-03-06 23:52:00,SystemResetWarning,0819.8,4.99,000.00,022.5,021.8,000.0,030.9,024.3,09.1,0000.0,0006.57,0001.75,0000.93
2024-03-06 23:53:00,SystemResetWarning,0819.8,4.99,000.00,022.5,021.8,000.0,030.9,024.3,09.1,0000.0,0006.67,0001.75,0000.93
2024-03-06 23:54:00,SystemResetWarning,0820.0,5.00,000.00,022.5,021.8,000.0,030.9,024.3,09.0,0000.0,0006.59,0001.77,0000.94
2024-03-06 23:55:00,SystemResetWarning,0819.8,5.00,000.00,022.5,021.8,000.0,030.9,024.3,09.1,0000.0,0006.38,0001.74,0000.94
2024-03-06 23:56:00,SystemResetWarning,0819.8,5.00,000.00,022.5,021.8,000.0,030.9,024.3,09.1,0000.0,0006.14,0001.75,0000.94
2024-03-06 23:57:00,SystemResetWarning,0819.8,5.00,000.00,022.5,021.8,000.0,030.9,024.3,09.1,0000.0,0006.19,0001.81,0000.95
2024-03-06 23:58:00,SystemResetWarning,0820.0,5.01,000.00,022.5,021.8,000.0,030.9,024.3,09.2,0000.0,0006.02,0001.73,0000.95
2024-03-06 23:59:00,SystemResetWarning,0819.9,5.01,000.00,022.5,021.8,000.0,030.9,024.3,09.0,0000.0,0005.10,0001.73,0000.95
